Location: Al Ba?al?yah
(25.1044°N, 32.7916°E)
Time: 03:58:32
(UTC+00:00)

Daily predictions for brighter satellites

Satellite Brightness Start Highest point End
(mag) Time Altitude Azimuth Time Altitude Azimuth Time Altitude Azimuth
Milstar 3 3.1 00:49:41 87° WSW 00:49:50 89° S 01:01:26 10° ENE
SL-08 R/B 4.2 01:11:10 48° NNE 01:11:10 48° NNE 01:14:51 10° N
Delta 7925 Rocket 4.1 01:11:38 46° ENE 01:11:38 46° ENE 01:15:21 10° E
CZ-2C R/B 3.0 01:08:25 10° NNE 01:12:54 51° E 01:12:54 51° E
Delta 168 4.4 01:16:20 37° ESE 01:16:20 37° ESE 01:19:13 10° E
Lacrosse 5 rocket 3.3 01:11:26 12° N 01:15:06 31° NE 01:19:11 10° ESE
DELTA 2 R/B (1) 4.4 01:17:06 39° NNW 01:17:06 39° NNW 01:21:55 10° NE
Cosmos 1898 Rocket 3.9 01:19:04 54° N 01:19:04 54° N 01:23:06 10° NNE
ARIANE 5 R/B 4.0 01:13:55 10° N 01:16:29 27° NNW 01:16:29 27° NNW
BREEZE-M DEB (TANK) 4.0 01:19:15 30° SE 01:20:07 32° ESE 01:27:38 10° NE
Cosmos 858 Rocket 4.5 01:23:01 75° ESE 01:23:01 75° ESE 01:28:11 10° NNE
ALOS 3.9 01:20:00 10° NE 01:24:09 31° E 01:26:56 17° SSE
Cosmos 1937 Rocket 3.4 01:24:28 81° ENE 01:24:28 81° ENE 01:29:28 10° NNE
Cosmos 2082 Rocket 4.4 01:21:19 10° NNE 01:25:51 25° ENE 01:30:20 10° ESE
Cosmos 2239 Rocket 4.4 01:21:38 10° N 01:27:51 89° E 01:31:34 26° S
FENGYUN 3A 4.4 01:28:59 10° NNE 01:34:12 50° E 01:38:14 16° S
Meteor 1-13 Rocket 4.2 01:34:50 64° WSW 01:35:23 68° W 01:41:12 10° N
PSLV R/B 3.9 01:34:04 10° NNE 01:38:14 58° E 01:39:07 47° SSE
Cosmos 1821 Rocket 4.0 01:32:27 10° NNW 01:38:38 58° W 01:39:42 51° SW
Cosmos 1339 Rocket 4.4 01:36:21 32° S 01:39:29 90° W 01:45:48 10° N
Cosmos 2278 Rocket 4.0 01:41:27 17° NW 01:41:27 17° NW 01:43:39 10° NNW
Delta 128 4.2 01:40:06 54° SSW 01:40:06 54° SSW 01:44:54 10° SE
Cosmos 1066 Rocket 4.1 01:39:24 43° SSW 01:41:23 84° W 01:47:14 10° N
Hubble Space Telescope 0.8 01:44:49 72° SE 01:44:49 72° SE 01:48:34 10° ESE
X-37B 2.2 01:46:21 31° NNE 01:46:21 31° NNE 01:48:15 10° NE
COSMOS 2406 3.1 01:41:17 10° NNW 01:46:57 87° WSW 01:52:36 10° SSE
Cosmos 1833 Rocket 2.6 01:44:01 10° NNW 01:49:41 86° WSW 01:55:19 10° SSE
Cosmos 1535 Rocket 4.4 01:46:44 10° N 01:52:51 85° E 01:59:02 10° S
CZ-2C R/B 4.2 01:50:33 10° N 01:52:30 26° NNW 01:52:30 26° NNW
PAYLOAD A 4.2 01:50:30 10° N 01:55:21 45° WNW 01:55:45 44° W
Cosmos 1484 Rocket 3.1 01:57:59 10° NNE 02:01:57 66° E 02:05:09 15° S
Yuri Rocket 4.1 02:02:49 32° SSW 02:02:50 32° SSW 02:06:51 10° SE
Delta 2 Rocket 3.8 02:00:26 36° WSW 02:03:02 86° S 02:09:38 10° E
Cosmos 2084 3.4 02:02:43 52° W 02:03:19 58° WNW 02:07:25 10° NNE
Cosmos 2297 3.8 02:02:16 34° SW 02:04:33 56° WNW 02:10:11 10° N
Cosmos 158 Rocket 3.9 01:59:52 10° NNW 02:04:36 50° WSW 02:09:16 10° S
Cosmos 2369 Rocket 2.9 02:06:17 10° S 02:11:40 53° ESE 02:17:05 10° NNE
Cosmos 372 Rocket 3.9 02:08:50 25° SSW 02:11:48 63° WNW 02:16:54 10° N
Cosmos 1378 Rocket 4.1 02:08:56 10° S 02:13:17 60° E 02:17:39 10° NNE
GP-B 3.7 02:11:13 10° NNE 02:15:35 59° E 02:19:56 10° S
deb Kosmos-1763 4.3 02:12:59 10° NNW 02:20:37 - S 02:16:08 39° W
Cosmos 1943 Rocket 2.2 02:13:46 20° SSW 02:17:41 62° WNW 02:23:17 10° N
Cosmos 1680 Rocket 3.4 02:13:03 10° NNW 02:18:20 76° WSW 02:23:38 10° S
CZ-4C R/B 4.4 02:11:14 10° N 02:18:40 43° ENE 02:26:43 10° SE
Meteor 2-20 4.4 02:15:50 10° S 02:21:56 78° W 02:28:04 10° N
Cosmos 1674 Rocket 3.4 02:17:38 10° S 02:21:56 83° W 02:26:16 10° N
ASTRO E2 2.9 02:20:35 28° SW 02:22:26 60° SSE 02:26:20 10° ENE
Cosmos 2221 Rocket 4.2 02:22:44 24° SW 02:24:33 34° W 02:28:37 10° NNW
SL-24 R/B 4.2 02:21:47 10° SSE 02:26:48 89° E 02:31:09 10° N
METEOR-M 4.1 02:21:49 10° N 02:27:06 66° WNW 02:32:23 10° SSW
Meteor 1-15 Rocket 4.1 02:26:41 10° NNW 02:32:14 73° W 02:37:48 10° S
Cosmos 2151 Rocket 3.6 02:29:50 10° N 02:34:21 86° E 02:38:53 10° S
CZ-4C R/B 3.2 02:33:43 10° SSE 02:37:18 76° ENE 02:40:51 10° N
Intelsat 5-1 Rocket 4.0 02:22:47 12° W 02:40:16 81° S 02:46:07 10° ESE
Okean 2 Rocket 3.1 02:36:21 10° NNW 02:40:41 55° W 02:44:59 10° S
Cosmos 1605 Rocket 4.1 02:34:54 10° NNW 02:40:46 51° W 02:46:42 10° SSW
Cosmos 1805 3.6 02:39:26 10° NNW 02:43:07 42° W 02:46:48 10° SSW
Cosmos 1356 Rocket 3.8 02:42:16 10° NNW 02:46:06 39° W 02:49:58 10° SSW
ATLAS 5 CENTAUR R/B 2.6 02:40:34 10° NNW 02:46:53 86° WSW 02:54:04 10° SSE
Cosmos 2298 Rocket 4.0 02:42:19 10° SSW 02:47:35 65° WNW 02:52:51 10° N
CZ-2C R/B 4.3 02:49:33 10° NW 02:50:49 11° WNW 02:52:06 10° W
Lacrosse 5 rocket 2.8 02:50:32 10° WNW 02:54:05 22° WSW 02:57:36 10° S
Landsat 5 3.7 02:53:14 10° S 02:57:23 50° W 03:01:41 10° NNW
ALOS 3.8 02:58:18 10° NNW 03:01:13 17° WNW 03:04:08 10° WSW
Cosmos 2123 Rocket 4.3 02:57:19 10° S 03:03:32 76° E 03:09:43 10° N
SKYMED 2 4.4 03:00:18 10° SSE 03:04:31 56° ENE 03:08:46 10° N
Cosmos 1707 2.7 03:01:22 10° S 03:05:13 72° W 03:09:06 10° N
Delta 7925 Rocket 3.6 03:00:28 10° W 03:05:21 67° SSW 03:11:19 10° ESE
Envisat 3.6 03:01:32 10° NNE 03:06:35 63° ESE 03:11:35 10° S
Cosmos 1975 Rocket 3.6 03:02:10 10° S 03:06:36 68° E 03:11:02 10° NNE
Cosmos 1733 4.3 03:05:44 10° NW 03:08:43 23° W 03:11:42 10° SW
Cosmos 2082 Rocket 2.9 03:05:00 10° NW 03:09:47 30° WSW 03:14:34 10° SSW
Fermi 4.0 03:05:56 10° WSW 03:10:03 66° SSE 03:14:10 10° E
Delta 168 2.7 03:06:58 10° W 03:11:36 88° S 03:15:00 10° E
